Regional Weather Roundup
Issued by NWS

Home | Current Version | Previous Version | Text Only | Print | Product List | Glossary On
Versions: 1 2 3 4 5 6 7 8 9 10 11 12 13 14 15 16 17 18 19 20 21 22 23 24 25 26 27 28
000
ASUS45 KSLC 232310
RWRUT

UTAH REGIONAL WEATHER ROUNDUP
NATIONAL WEATHER SERVICE SALT LAKE CITY UT
500 PM MDT TUE MAY 23 2017

UTZ001>011-023>025-240000-

NORTHERN UTAH

CITY           SKY/WX    TMP DP  RH WIND       PRES   REMARKS
BRIGHAM CITY   SUNNY     76  34  21 S5        30.10S
DUGWAY         PTSUNNY   83  25  12 N10G18    30.07F
HILL AFB       SUNNY     76  32  20 NW7       30.11F
LOGAN          SUNNY     77  43  29 W3        30.09F
OGDEN          SUNNY     77  33  20 W6        30.09F
SALT LAKE CITY MOSUNNY   81  36  19 NE7       30.07F
TOOELE VALLEY  SUNNY     79  41  25 NE8       30.08F
WENDOVER       SUNNY     82  35  18 SE9       30.06F
HEBER CITY     MOSUNNY   77  32  19 SW9       30.12F
WEST JORDAN    SUNNY     80  47  32 N6        30.10F

$$

UTZ011>015-024>027-240000-

CENTRAL/NORTHEAST UTAH

CITY           SKY/WX    TMP DP  RH WIND       PRES   REMARKS
PROVO AIRPORT  SUNNY     78  41  26 W5        30.10F
MOAB/CANYONLAN SUNNY     76  26  15 VRB6      30.09F
DELTA          SUNNY     79  28  15 NW5       30.10F
PRICE          MOSUNNY   74  36  25 S6        30.13F
ROOSEVELT      SUNNY     72  32  23 SE8       30.15F
VERNAL         SUNNY     69  34  27 E6        30.14F

$$

UTZ013>016-019>022-027-240000-

SOUTHERN UTAH

CITY           SKY/WX    TMP DP  RH WIND       PRES   REMARKS
BRYCE CANYON   SUNNY     73  22  14 NW21G26   30.26F
CEDAR CITY     SUNNY     81  23  11 VRB3      30.14F
MILFORD        SUNNY     84  26  12 NE17      30.09F
ST GEORGE      PTCLDY    93  28  10 SW10      29.95F
HANKSVILLE     SUNNY     81  30  16 NW6       30.08F
BLANDING       SUNNY     73  24  16 NW20G25   30.22F

$$

REGIONAL REPORTS     COLORADO/ARIZONA

CITY           SKY/WX    TMP DP  RH WIND       PRES   REMARKS
CRAIG, CO      CLOUDY    61  29  29 SW8       30.20F
GRAND JUNCTION SUNNY     73  27  18 SW9       30.10F
RIFLE, CO      SUNNY     68  21  16 W14       30.15F
MONTROSE, CO   SUNNY     68  19  15 VRB7      30.18F
CORTEZ, CO     SUNNY     73  19  13 N21G30    30.13F
COLORADO CITY    N/A     88  30  12 NW14      30.12F
PAGE, AZ       SUNNY     84  31  14 NE7       30.05F
GRAND CANYON   SUNNY     76  11   8 VRB7G18   30.21F
KINGMAN, AZ    SUNNY     95  27   9 NW8       29.98F
FLAGSTAFF, AZ  SUNNY     75  19  12 E9        30.21F

$$

REGIONAL REPORTS    NEVADA/IDAHO/WYOMING

CITY           SKY/WX    TMP DP  RH WIND       PRES   REMARKS
LAS VEGAS, NV  MOSUNNY   98  19   6 VRB3      29.87F HX  91
ELY, NY        SUNNY     80  30  16 W8G17     30.16F
ELKO, NV       SUNNY     80  35  19 SW7       30.11F
POCATELLO, ID  MOSUNNY   78  37  22 W15       30.07F
BURLEY, ID     SUNNY     79  40  24 NW9G16    30.04F
FORT BRIDGER,    N/A     71  32  23 NW16      30.22F
EVANSTON, WY   SUNNY     69  35  28 W14       30.21F
ROCK SPRINGS,  SUNNY     65  29  25 N5        30.17F
KEMMERER, WY     N/A     68  34  28 W15G22    30.20F

$$




USA.gov is the U.S. government's official web portal to all federal, state and local government web resources and services.